Regional Weather Roundup
Issued by NWS Charleston, SC

Current Version | Previous Version | Text Only | Print | Product List | Glossary Off
Versions: 1 2 3 4 5 6 7 8 9 10 11 12 13 14 15 16 17 18 19 20 21 22 23 24 25 26 27 28 29 30 31 32 33 34 35 36 37 38 39 40 41 42 43 44 45 46 47 48 49 50

000
ASUS42 KCHS 251628
RWRCHS

REGIONAL WEATHER ROUNDUP
NATIONAL WEATHER SERVICE CHARLESTON SC
1200 PM EDT WED MAY 25 2016

NOTE: "FAIR" INDICATES FEW OR NO CLOUDS BELOW 12,000 FEET WITH NO
SIGNIFICANT WEATHER AND/OR OBSTRUCTIONS TO VISIBILITY.

NOT ALL STATIONS ARE QUALITY CONTROLLED. USE DATA WITH CAUTION...
ESPECIALLY DEWPOINT OBSERVATIONS.

SCZ027-030-031-034>040-042>050-251700-
...SOUTHEAST SOUTH CAROLINA...

CITY           SKY/WX    TMP DP  RH WIND       PRES   REMARKS
N CHARLESTON   MOSUNNY   85  60  42 W7        30.24F
WATERFRONT PRK   N/A     78  71  79 E7        30.23S
MOUNT PLEASANT FAIR      82  64  54 CALM      30.24F
JOHNS ISLAND   PTSUNNY   82  70  65 S9        30.25S
PINOPOLIS        N/A     82  66  57 VRB2      30.18S
MONCKS CORNER  FAIR      82  52  34 CALM      30.24S
SUMMERVILLE    FAIR      84  64  51 S6        30.25S
BEAUFORT MCAS  MOSUNNY   84  64  50 SW7       30.25S
BEAUFORT ARPT  FAIR      81  64  57 S5        30.25F
HILTON HEAD IS SUNNY     86  68  54 S12       30.26S
WALTERBORO     MOSUNNY   86  57  37 SW5       30.25F
ALLENDALE      FAIR      84  63  48 VRB6      30.24S

...SOUTHERN MIDLANDS AND PEE DEE...

CITY           SKY/WX    TMP DP  RH WIND       PRES   REMARKS
GEORGETOWN     FAIR      82  59  44 SW5       30.25S
KINGSTREE      FAIR      82  57  42 W7        30.24S
ORANGEBURG     SUNNY     84  62  47 VRB5      30.25S
BARNWELL       FAIR      88  63  42 CALM      30.25S
AIKEN          FAIR      82  54  36 S8        30.29S
MANNING        FAIR      81  61  50 SW6       30.24F
COLUMBIA       MOSUNNY   86  56  35 SW7       30.23S
SUMTER         SUNNY     83  62  49 NW3       30.22S
FLORENCE       SUNNY     85  59  41 W7        30.24S
MYRTLE BEACH   SUNNY     82  64  54 S12       30.26S
N MYRTLE BEACH SUNNY     80  67  64 S10       30.24S

$$

GAZ063-065-086>088-099>101-113>116-118-119-134>141-150-251700-
...SOUTHEAST GEORGIA...

CITY           SKY/WX    TMP DP  RH WIND       PRES   REMARKS
SAVANNAH ARPT  MOSUNNY   84  60  44 SW6       30.25S
HUNTER AAF     SUNNY     84  63  49 VRB6      30.23S
FORT STEWART   SUNNY     82  64  53 S3        30.23S
STATESBORO     SUNNY     86  61  43 SW3       30.25S
SYLVANIA       SUNNY     87  58  37 SW5       30.26S
CLAXTON        FAIR      86  61  43 CALM      30.25S

...CSRA...CENTRAL AND FAR SOUTHEAST GEORGIA...

CITY           SKY/WX    TMP DP  RH WIND       PRES   REMARKS
THOMSON        SUNNY     86  62  43 S3        30.30S
AUGUSTA-BUSH   SUNNY     84  59  42 VRB3      30.24S
AUGUSTA-DANIEL SUNNY    N/A N/A N/A MISG      30.26S
SWAINSBORO     FAIR      86  55  35 SW7       30.26S
VIDALIA        SUNNY     84  59  42 CALM      30.25S
EASTMAN        FAIR      84  58  41 W3        30.28S
HAZLEHURST     FAIR      87  58  37 CALM      30.24S
ALMA           SUNNY     84  60  44 MISG      30.24S
WAYCROSS       SUNNY     85  59  41 SW3       30.24S
JESUP          FAIR      82  57  42 SE3       30.24F
BAXLEY         FAIR      86  54  32 SE5       30.24S
BRUNSWICK      SUNNY     86  64  48 SE3       30.26S
SAINT SIMONS   SUNNY     81  68  64 SE9       30.25S

$$

SCZ027-028-034-036>038-045-046-048>050-GAZ119-141-251700-
...LAKE AND SUPPLEMENTAL COASTAL OBSERVATIONS...

STATION/POSITION TIME  TEMP    WIND        PRES    WAVE   SWELL
                       AIR SEA DIR/SP/G            HT/PER HT/PER/DIR
                 (UTC) (F)     (DEG/KT/KT) (MB)    (FT/S) (FT/S/D)
WINYAH BAY       1545   81     230/  5     1023.0F
LAKE MURRAY      1500   77     260/  4/  5 1023.7R
ACE BASIN NERRS  1500   80     230/  2     1025.0S
FORT PULASKI     1600   79 76  180/  5/  7 1024.9R
SAPELO ISLAND    1600   85     160/  6     1024.0S

$$

ANZ835-935-AMZ111-154-330-350-352-354-370-450-454-472-251700-
...C-MAN AND BUOY OBSERVATIONS...

STATION/POSITION TIME  TEMP    WIND        PRES    WAVE   SWELL
                       AIR SEA DIR/SP/G            HT/PER HT/PER/DIR
                 (UTC) (F)     (DEG/KT/KT) (MB)    (FT/S) (FT/S/D)
BUOY 41004       1550   77 78  220/  2/  4 1024.5R   2/ 8   2/ 8
BUOY 41008       1550   77 77  180/  4/  4 1024.7R   2/10   2/ 90/10
FOLLY BEACH CMAN 1600   77     190/  8/ 10 1024.6F
CAPERS NEARSHORE 1508   76 75  200/  6/  8 1024.4F
FRIPP NEARSHORE  1608   77 76  170/  4/  6 1024.1R


STATION/POSITION TIME  TEMP    WIND        PRES    WAVE   SWELL
                       AIR SEA DIR/SP/G            HT/PER HT/PER/DIR
                 (UTC) (F)     (DEG/KT/KT) (MB)    (FT/S) (FT/S/D)
5E ST. MARYS GA  1551      78                N/A     2/ 9
FRYING PAN BUOY  1600   76 77  250/  6/  8 1024.5S
BUOY 41025       1550   69 70  260/  6/  6 1023.8S   3/ 9   2/130/ 9
CAPE LOOKOUT NC  1600   75     250/  7/  9 1023.8F
BUOY 41002       1550   74 78   50/  8/ 10 1025.2R   3/ 7   3/ 60/ 7
BUOY 41010       1520   76 78   40/ 10/ 12 1024.4R
ST AUGUSTINE FL  1600   78 79  140/  8/  9 1025.3R


$$




USA.gov is the U.S. government's official web portal to all federal, state and local government web resources and services.